Regional Weather Roundup
Issued by NWS

Home | Current Version | Previous Version | Text Only | Print | Product List | Glossary Off
Versions: 1 2 3 4 5 6 7 8 9 10 11 12 13 14 15 16 17 18 19 20 21 22 23 24 25 26 27 28 29 30 31 32 33 34 35 36 37 38 39 40 41 42 43 44 45 46 47 48 49 50

000
ASUS43 KOAX 200510
RWRNE

WEATHER ROUNDUP FOR NEBRASKA
NATIONAL WEATHER SERVICE OMAHA NE
1100 PM CST SUN NOV 19 2017

NOTES: SATELLITE DATA IS BEING USED TO AUGMENT CLOUD COVER ABOVE
       12000 FEET.
       "FAIR" INDICATES FEW OR NO CLOUDS BELOW 12,000 FEET WITH NO
       SIGNIFICANT WEATHER AND/OR OBSTRUCTIONS TO VISIBILITY.


NEZ001>004-019>022-054>056-200600-
NEBRASKA PANHANDLE

CITY           SKY/WX    TMP DP  RH WIND       PRES   REMARKS
SCOTTSBLUFF    CLOUDY    42   9  25 W13       29.86F
ALLIANCE       CLOUDY    26  11  52 SW10      29.82F WCI  16
CHADRON        CLOUDY    27  15  61 SW8       29.79F WCI  19
GORDON         FAIR      36  15  43 W9        29.77F WCI  29
KIMBALL        CLOUDY    33   9  37 SW3       29.91F
SIDNEY         CLOUDY    35  10  35 W10       29.89F WCI  27
$$

NEZ057>060-069>072-079>082-200600-
SOUTHWEST NEBRASKA

CITY           SKY/WX    TMP DP  RH WIND       PRES   REMARKS
NORTH PLATTE   CLOUDY    33  22  63 CALM      29.86S
IMPERIAL       CLOUDY    39  20  46 SW10      29.87F WCI  32
LEXINGTON      CLOUDY    44  26  49 SW13      29.86F
MCCOOK         CLEAR     41  23  48 W12       29.88F
OGALLALA       CLOUDY    31  24  74 W8        29.87F WCI  24
$$

NEZ005>010-023>029-035>040-094-200600-
NORTH CENTRAL NEBRASKA

CITY           SKY/WX    TMP DP  RH WIND       PRES   REMARKS
VALENTINE      CLOUDY    37  20  50 W6        29.76F WCI  32
AINSWORTH      CLOUDY    40  22  48 SW14      29.76F WCI  32
BROKEN BOW     CLEAR     34  23  64 CALM      29.84F
O`NEILL        PTCLDY    36  27  71 S7        29.80F WCI  30
ORD            CLOUDY    37  24  59 S5        29.82F WCI  33
THEDFORD       CLOUDY    42  23  47 SW9       29.82F
$$

NEZ041-046>049-061>064-073>077-083>087-200600-
SOUTH CENTRAL NEBRASKA

CITY           SKY/WX    TMP DP  RH WIND       PRES   REMARKS
GRAND ISLAND   CLEAR     42  26  53 SW10      29.87F
AURORA         CLOUDY    37  24  58 SW12      29.87F WCI  30
HASTINGS       CLOUDY    40  22  48 S8        29.88F WCI  34
HEBRON         CLOUDY    42  24  48 S13       29.91F
HOLDREGE       CLOUDY    38  26  61 SW8       29.87F WCI  32
KEARNEY        CLEAR     37  25  61 SW12      29.87F WCI  29
YORK           CLOUDY    36  25  64 CALM      29.89F
$$

NEZ011>018-030>034-042>045-200600-
NORTHEAST NEBRASKA

CITY           SKY/WX    TMP DP  RH WIND       PRES   REMARKS
NORFOLK        CLOUDY    37  25  61 SW5       29.84F WCI  33
ALBION         CLOUDY    37  25  60 SE6       29.85F WCI  33
BLAIR          CLOUDY    41  26  57 S9        29.89F
COLUMBUS       CLOUDY    37  24  59 W5        29.88F WCI  33
FREMONT        CLOUDY    42  25  51 SW7       29.88F
TEKAMAH        CLOUDY    32  24  72 SE10      29.88F WCI  24
WAYNE          CLOUDY    35  24  66 SW6       29.84F WCI  30
$$

NEZ050>053-065>068-078-088>093-200600-
SOUTHEAST NEBRASKA

CITY           SKY/WX    TMP DP  RH WIND       PRES   REMARKS
LINCOLN        CLOUDY    38  24  57 S6        29.92F WCI  33
OMAHA EPPLEY   CLOUDY    37  26  64 S10       29.91F WCI  30
BEATRICE       CLOUDY    43  25  49 S12       29.92F
FALLS CITY     CLOUDY    42  25  50 S13       29.96F
NEBRASKA CITY  CLOUDY    37  27  66 SW10      29.94F WCI  30
PLATTSMOUTH    PTCLDY    40  27  60 S10       29.91F WCI  33
$$

NEZ044-045-051>053-067-200600-
OMAHA AREA

CITY           SKY/WX    TMP DP  RH WIND       PRES   REMARKS
OMAHA EPPLEY   CLOUDY    37  26  64 S10       29.91F WCI  30
BLAIR          CLOUDY    41  26  57 S9        29.89F
FREMONT        CLOUDY    42  25  51 SW7       29.88F
MILLARD        CLOUDY    40  27  58 S3        29.91F
OFFUTT AFB     CLOUDY    32  25  76 SE3       29.91F
PLATTSMOUTH    PTCLDY    40  27  60 S10       29.91F WCI  33
WAHOO          FAIR      36  25  63 S5        29.89F WCI  32
$$




USA.gov is the U.S. government's official web portal to all federal, state and local government web resources and services.